Flag for Switzerland Weather past 2 weeks in Stans, Nidwalden, Switzerland

Now
46 °F

Cool.


Feels Like: 46 °F
Forecast: 44 / 71 °F
Wind: No wind

Location: Giswil


UV Index: 3 (Moderate)

Visibility: N/A


Pressure: 29.69 "Hg

Humidity: 97%

Dew point: 46 °F

Location of StansLocation

Historic Weather in Stans

°F

Stans temperature yesterday

Maximum temperature yesterday: 64 °F (at 5:00 PM)
Minimum temperature yesterday: 31 °F (at 5:00 AM)
Average temperature yesterday: 46 °F

Past Weeks' High & Low Weather Summary

 TemperatureHumidityPressure
High69 °F (Apr 11, 5:00 PM)100% (Apr 7, 4:00 AM)30.36 "Hg (Apr 7, 4:00 AM)
Low27 °F (Apr 17, 7:00 AM)32% (Apr 10, 5:00 PM)29.61 "Hg (Apr 20, 6:00 PM)
Average49 °F72%30.09 "Hg
* Reported Apr 6 6:00 AM — Apr 21 6:00 AM, Stans, Weather by CustomWeather, © 2014

Note: Actual official high and low records may vary slightly from our data, if they occured in-between our weather recording intervals... More about our weather records

Advertising

Historic Weather Conditions — Data for Previous 24 hours

 ConditionsComfort  
Time TempWeatherWind HumidityBarometerVisibility
6:00 AM
Apr 21
46 °FCool.No wind97%29.69 "HgN/A
5:00 AM47 °FCool.1 mph95%29.69 "HgN/A
4:00 AM46 °FCool.1 mph93%29.69 "HgN/A
3:00 AM46 °FCool.No wind92%29.68 "HgN/A
2:00 AM46 °FCool.No wind90%29.69 "HgN/A
1:00 AM46 °FCool.1 mph88%29.70 "HgN/A
12:00 AM45 °FCool.2 mph90%29.71 "HgN/A
11:00 PM
Apr 20
46 °FCool.2 mph87%29.71 "HgN/A
10:00 PM51 °FCool.1 mph71%29.69 "HgN/A
9:00 PM51 °FCool.2 mph76%29.67 "HgN/A
8:00 PM57 °FRefreshingly cool.2 mph60%29.64 "HgN/A
7:00 PM60 °FRefreshingly cool.2 mph50%29.62 "HgN/A
6:00 PM62 °FRefreshingly cool.6 mph48%29.61 "HgN/A
5:00 PM64 °FMild.3 mph42%29.61 "HgN/A
4:00 PM62 °FRefreshingly cool.3 mph46%29.63 "HgN/A
3:00 PM60 °FRefreshingly cool.2 mph46%29.65 "HgN/A
2:00 PM58 °FRefreshingly cool.2 mph51%29.67 "HgN/A
1:00 PM56 °FRefreshingly cool.2 mph54%29.70 "HgN/A
12:00 PM53 °FCool.2 mph59%29.72 "HgN/A
11:00 AM50 °FCool.2 mph63%29.75 "HgN/A
10:00 AM46 °FCool.1 mph73%29.77 "HgN/A
9:00 AM42 °FQuite cool.1 mph81%29.79 "HgN/A
8:00 AM35 °FChilly.No wind96%29.81 "HgN/A
7:00 AM31 °FChilly.1 mph98%29.83 "HgN/A
Weather by CustomWeather, © 2014

See weather overview